Location: Central Coast
(33.3208°S, 151.2336°E)
Time: 03:50:40
(UTC+11:00)

Tiangong 1 - Visible Passes

Search period start: 21 January 2018 00:00
Search period end: 31 January 2018 00:00
Orbit: 262 x 287 km, 42.8° (Epoch: 20 January)

Date Brightness Start Highest point End Pass type
(mag) Time Alt. Az. Time Alt. Az. Time Alt. Az.
21 Jan 2.8 04:38:04 16° SW 04:38:41 17° SSW 04:40:25 10° SSE visible
22 Jan 3.3 04:37:29 11° SW 04:38:24 13° SSW 04:39:37 10° SSE visible
23 Jan 3.6 04:37:26 10° SSW 04:38:00 11° S 04:38:35 10° S visible
26 Jan 3.7 04:35:28 10° S 04:36:07 11° S 04:36:46 10° SSE visible
27 Jan 3.6 04:33:56 10° SSW 04:35:12 13° SSE 04:36:28 10° SE visible
28 Jan 3.3 04:32:48 12° SSW 04:34:06 17° SSE 04:35:51 10° ESE visible
29 Jan 2.5 04:32:19 24° S 04:32:50 26° SSE 04:34:57 10° E visible
30 Jan 2.2 04:32:10 31° E 04:32:10 31° E 04:33:43 10° ENE visible
